Location: North Evanston
(42.0634°N, 87.6976°W)
Time: 20:46:38
(UTC+00:00)

Vanguard 3 - Pass Details

Date: 18 May 2026
Orbit: 507 x 3205 km, 33.4° (Epoch: 31 May)

Event Time Altitude Azimuth Distance (km) Brightness Sun altitude
Rises 21:00:35 0° 263° (W) 6,789 12.6 43.7°
Reaches altitude 10° 21:04:54 10° 260° (W) 5,948 12.7 42.9°
Maximum altitude 21:24:01 64° 186° (S) 3,326 11.0 39.4°
Drops below altitude 10° 21:40:02 10° 110° (ESE) 5,092 10.9 36.5°
Sets 21:43:24 0° 107° (ESE) 5,808 11.1 35.8°
